Language selection

Features

My Weather Profile Weather Topics  | 

Central Coast from McInnes Island to Pine Island: Past 24 Hour Conditions

 

Prince Rupert Airport

09:00 PM PST 26 January 2020
Disclaimer

This table is a summary of hourly weather conditions for the past 24 hours.
Please note that these observations might not always be representative of weather conditions over their associated marine area.

Date / Time
(PST)
Wind(knots) Conditions Visibility(km) Pressure(kPa) Air tempC) Relative humidity(%) Dew pointC)
26 January 2020
21:00 SE 19 gust 29 Light Rain 16 99.8 6 88 4
20:00 SE 18 gust 29 Light Rain 16 99.8 6 87 4
19:00 SE 15 gust 22 Light Rain 16 99.7 6 87 4
18:00 SE 12 gust 18 Light Rain 16 99.8 6 85 4
17:00 ESE 10 gust 18 Light Rain 16 99.8 5 87 3
16:00 SE 10 gust 18 Mainly Sunny 16 99.8 6 80 3
15:00 ESE 10 gust 15 Cloudy 16 99.9 5 87 3
14:00 SE 9 Light Rain 16 99.9 6 82 3
13:00 ESE 8 Light Rain 16 99.9 6 81 3
12:00 SE 4 Light Rain 16 99.9 5 85 3
11:00 calm Light Rain 16 99.8 5 84 3
10:00 NW 5 Light Rain 16 99.7 6 78 2
9:00 calm Cloudy 16 99.7 4 79 1
8:00 S 3 Cloudy 16 99.7 5 71 0
7:00 SSE 2 Cloudy 16 99.8 6 64 0
6:00 SW 3 Cloudy 16 99.8 6 72 2
5:00 E 3 Cloudy 16 99.9 7 62 0
4:00 SE 10 Cloudy 16 100.0 7 67 1
3:00 SE 11 Mostly Cloudy 16 100.1 7 65 1
2:00 SE 11 gust 16 Mostly Cloudy 16 100.2 8 63 1
1:00 SE 12 gust 17 Mostly Cloudy 16 100.2 8 61 1
0:00 SE 10 gust 15 Mostly Cloudy 16 100.3 8 64 2
25 January 2020
23:00 SE 11 gust 17 Partly Cloudy 16 100.4 7 69 2
22:00 SE 12 gust 22 Partly Cloudy 16 100.4 8 70 3
21:00 ESE 16 gust 22 Cloudy 16 100.5 7 75 3

Zoom-in to make a selection

Map of Pacific - North Coast marine weather areas Middle Nomad - 46004 South Nomad - 46036 Dixon Entrance Central - 46145 South Moresby - 46147 Nanakwa Shoal - 46181 North Hecate Strait - 46183 North Nomad - 46184 South Hecate Strait - 46185 West Sea Otter - 46204 West Dixon Entrance - 46205 East Dellwood - 46207 West Moresby - 46208 Sartine Island Cape St.James Kindakun Rocks Langara Island Masset Municipal Airport Rose Spit Sandspit Airport Bella Bella Airport Bella Coola Airport Bonilla Island Cathedral Point Cumshewa Island Grey Islet Holland Rock Lucy Islands Lightstation Prince Rupert Airport
Legend:
buoy Buoy
land station Land Station

Pacific - North Coast Area

Another Region

What we are doing

Date modified: